Orbital Elements at Epoch 2459200.5 (2020-Dec-17.0) TDB
Reference: JPL 20 (heliocentric ecliptic J2000)
Element | Value | Uncertainty (1-sigma) | Units |
e | .1022512590490582 | 4.1431e-08 | |
a | 2.727141714707765 | 1.9858e-08 | au |
q | 2.448288040773689 | 1.1145e-07 | au |
i | 10.1798751181367 | 4.2796e-06 | deg |
node | 104.79117716314 | 2.4662e-05 | deg |
peri | 123.1133771595213 | 3.2913e-05 | deg |
M | 218.4537180651287 | 2.3827e-05 | deg |
tp | 2459847.279061455045 (2022-Sep-24.77906145) | 0.00011179 | TDB |
period | 1644.977592777402 4.50 | 1.7967e-05 4.919e-08 | d yr |
n | .2188479658207205 | 2.3904e-09 | deg/d |
Q | 3.005995388641842 | 2.1889e-08 | au |
|
| | Orbit Determination Parameters
Additional Information
|